Weather in Bhopal

India     23°11′50″N   77°25′04″E
temp.,
°C
wind,
m/s
gust,
m/s
humid.,
%
clouds,
%
prec.,
mm/h
press.,
hPa
HPBL,
m
7 march, sun
sun723:30+23s11170 0.0 101123
02:30+21sse22180 0.0 101125
05:30+20s22200 0.0 101125
08:30+26s11150 0.0 1014140
11:30+34wsw34110 0.0 10132257
14:30+36w4590 0.0 10093536
17:30+35wsw341016 0.0 10072726
20:30+27sw44160 0.0 101073
8 march, mon
mon823:30+26wnw45180 0.0 101185
02:30+23wnw47210 0.0 101098
05:30+21nw34220 0.0 101166
08:30+25w23190 0.0 1014261
11:30+34w34120 0.0 10131525
14:30+37w5780 0.0 10093922
17:30+35w4680 0.0 10082617
20:30+27wsw34130 0.0 101135
9 march, tue
tue923:30+24w34160 0.0 101232
02:30+23nw46160 0.0 101188
05:30+21nnw34230 0.0 101160
08:30+26nnw36190 0.0 1014314
11:30+34nnw34110 0.0 10131823
14:30+37w5790 0.0 10093994
17:30+35wnw3690 0.0 10083578
20:30+27w33150 0.0 101134
10 march, wed
wed1023:30+26w34160 0.0 101133
02:30+24nw47190 0.0 1010118
05:30+21nnw34220 0.0 101045
08:30+27nne23150 0.0 1013230
11:30+35n22100 0.0 10121862
14:30+37w4690 0.0 10083935
17:30+35wnw56100 0.0 10073432
20:30+27w23160 0.0 100931
11 march, thu
thu1123:30+26wnw34180 0.0 101055
02:30+24nw47210 0.0 100995
05:30+21nne11260 0.0 101027
08:30+27wnw121852 0.0 1013202
11:30+36ne111071 0.0 10121158
14:30+37wsw34100 0.0 10084205
17:30+36w451134 0.0 10074256
20:30+28wsw121723 0.0 100932